Temp
-11 -11 -10 -10 -10 -10 -10 -10 -10 -10 -9 -10 -10 -10 -10 -11 -11 -11 -11 -11 -11 -11 -12 -12 -12 -12 -12 -12 -12 -12 -12 -12 -13 -12 -13 -12 -12 -12 -12 -12 -12 -13 -13
-11 -11 -10 -10 -10 -10 -10 -10 -10 -10 -10 -10 -11 -11 -11 -11 -11 -10 -11 -11 -11 -11 -12 -12 -12 -12 -12 -12 -12 -12 -12 -12 -12 -12 -12 -13 -13 -13 -13 -13 -12 -13 -13
-10 -11 -10 -10 -10 -10 -10 -10 -10 -10 -10 -11 -11 -11 -11 -11 -10 -11 -11 -11 -11 -12 -12 -12 -12 -12 -12 -12 -12 -12 -12 -12 -12 -13 -12 -13 -13 -13 -13 -13 -13 -13 -13
-11 -11 -11 -11 -11 -10 -10 -10 -10 -10 -11 -11 -11 -11 -11 -11 -10 -10 -11 -12 -12 -12 -12 -12 -12 -12 -12 -13 -12 -12 -12 -12 -13 -13 -13 -13 -12 -13 -13 -13 -13 -13 -13
-11 -11 -11 -11 -11 -11 -10 -10 -10 -11 -11 -11 -11 -11 -10 -10 -10 -11 -12 -12 -12 -12 -12 -12 -12 -12 -12 -13 -12 -12 -12 -12 -12 -13 -13 -12 -12 -13 -13 -13 -13 -13 -13
-11 -11 -11 -11 -11 -11 -10 -10 -10 -11 -11 -11 -11 -10 -10 -11 -11 -11 -12 -12 -12 -12 -12 -12 -12 -13 -13 -12 -13 -12 -12 -12 -12 -12 -12 -12 -12 -13 -13 -13 -13 -13 -13
-11 -12 -11 -11 -11 -11 -10 -10 -11 -11 -11 -10 -10 -10 -11 -11 -11 -12 -12 -12 -12 -12 -12 -12 -12 -13 -13 -12 -13 -13 -12 -12 -13 -12 -12 -12 -12 -13 -13 -13 -13 -13 -13
-12 -12 -12 -11 -11 -11 -11 -11 -11 -11 -11 -11 -11 -11 -11 -11 -11 -11 -12 -12 -12 -12 -12 -13 -12 -12 -13 -12 -13 -13 -13 -13 -13 -12 -13 -13 -13 -13 -13 -13 -13 -13 -13
-12 -12 -12 -12 -12 -11 -11 -11 -11 -10 -11 -11 -11 -11 -11 -11 -11 -12 -12 -12 -12 -13 -12 -13 -12 -12 -12 -13 -13 -13 -13 -13 -13 -13 -13 -13 -13 -13 -13 -13 -13 -14 -13
-12 -12 -12 -12 -11 -11 -11 -11 -11 -11 -11 -11 -11 -11 -11 -11 -12 -12 -12 -12 -12 -12 -12 -13 -12 -13 -12 -13 -13 -13 -13 -13 -13 -13 -13 -13 -13 -13 -13 -13 -13 -13 -13
-12 -12 -12 -12 -11 -11 -11 -11 -11 -11 -11 -11 -11 -11 -12 -12 -12 -12 -11 -12 -12 -12 -12 -13 -13 -13 -13 -13 -13 -14 -13 -13 -13 -13 -13 -13 -13 -13 -13 -13 -13 -13 -13
-12 -12 -12 -11 -11 -11 -11 -11 -11 -11 -11 -11 -11 -12 -12 -12 -12 -12 -11 -12 -12 -12 -13 -13 -13 -13 -13 -13 -14 -13 -13 -14 -13 -13 -13 -13 -13 -13 -13 -13 -13 -13 -13
-12 -12 -11 -11 -11 -11 -11 -11 -11 -11 -11 -12 -12 -12 -12 -12 -12 -12 -12 -12 -12 -12 -12 -12 -13 -13 -13 -14 -14 -14 -13 -13 -13 -13 -13 -13 -13 -13 -13 -13 -13 -13 -13
-12 -11 -11 -11 -11 -11 -10 -11 -10 -11 -12 -12 -12 -13 -12 -13 -13 -13 -13 -12 -12 -11 -12 -12 -12 -13 -13 -13 -13 -13 -13 -13 -13 -13 -13 -13 -13 -13 -13 -13 -13 -12 -13
-11 -11 -11 -11 -11 -11 -10 -11 -11 -12 -12 -12 -13 -13 -13 -13 -13 -12 -12 -12 -11 -11 -11 -12 -12 -12 -13 -13 -13 -13 -13 -13 -13 -13 -13 -12 -12 -12 -12 -13 -13 -13 -12
-11 -11 -11 -11 -11 -11 -11 -11 -12 -12 -12 -13 -13 -13 -13 -13 -12 -12 -11 -11 -11 -11 -11 -11 -12 -12 -12 -12 -12 -13 -13 -13 -13 -13 -13 -13 -13 -13 -13 -13 -13 -13 -13
-11 -11 -11 -11 -12 -12 -12 -12 -12 -12 -13 -13 -13 -13 -12 -12 -12 -11 -11 -11 -11 -11 -11 -11 -12 -12 -12 -12 -12 -12 -13 -13 -13 -13 -13 -12 -12 -13 -13 -13 -13 -13 -13
-11 -11 -11 -12 -12 -13 -12 -12 -12 -12 -12 -13 -13 -12 -12 -12 -12 -11 -11 -11 -11 -11 -11 -11 -12 -12 -12 -12 -12 -13 -13 -13 -13 -13 -13 -13 -13 -13 -13 -13 -13 -13 -13
-11 -12 -12 -12 -12 -12 -13 -13 -13 -12 -13 -12 -12 -13 -12 -12 -12 -12 -11 -11 -11 -11 -11 -11 -11 -11 -12 -12 -12 -12 -12 -12 -12 -12 -12 -13 -13 -13 -13 -13 -13 -13 -13
-12 -12 -12 -12 -12 -12 -13 -13 -13 -12 -12 -12 -12 -13 -12 -12 -12 -12 -12 -11 -11 -11 -11 -11 -11 -11 -11 -11 -11 -12 -12 -12 -12 -12 -12 -13 -13 -13 -13 -13 -13 -13 -13
-12 -12 -12 -12 -12 -12 -13 -13 -13 -13 -12 -13 -13 -13 -13 -13 -13 -12 -12 -12 -12 -12 -12 -12 -12 -12 -12 -13 -13 -13 -13 -13 -13 -13 -13 -13 -13 -13 -13 -13 -13 -13 -13
-12 -12 -13 -13 -13 -13 -13 -13 -13 -13 -13 -13 -13 -13 -13 -13 -13 -13 -13 -12 -12 -12 -12 -12 -12 -12 -12 -12 -13 -13 -13 -13 -13 -13 -13 -14 -14 -14 -14 -14 -14 -14 -14
-13 -13 -13 -13 -13 -13 -13 -13 -13 -13 -13 -13 -13 -13 -13 -13 -13 -13 -13 -12 -12 -12 -12 -12 -13 -13 -13 -13 -13 -13 -13 -13 -13 -13 -14 -14 -14 -14 -14 -14 -14 -14 -14
-13 -13 -13 -13 -14 -13 -13 -13 -13 -13 -13 -13 -13 -13 -13 -13 -13 -13 -13 -13 -13 -13 -13 -13 -13 -13 -13 -13 -13 -13 -14 -14 -14 -14 -14 -14 -14 -14 -14 -14 -14 -15 -15
-13 -13 -13 -13 -14 -14 -14 -14 -14 -14 -14 -14 -14 -13 -13 -13 -13 -13 -13 -14 -14 -13 -14 -14 -14 -14 -14 -14 -14 -14 -14 -14 -14 -14 -14 -14 -14 -14 -14 -15 -15 -15 -15
-14 -14 -14 -14 -14 -14 -14 -14 -14 -13 -13 -14 -14 -14 -14 -13 -13 -13 -14 -14 -14 -14 -14 -14 -14 -14 -14 -14 -14 -14 -14 -14 -14 -14 -14 -14 -14 -14 -14 -14 -14 -14 -14
Height
5703 5708 5712 5715 5719 5722 5725 5728 5729 5730 5732 5733 5735 5736 5737 5737 5736 5734 5733 5731 5730 5729 5728 5727 5726 5724 5722 5720 5718 5715 5714 5712 5711 5710 5711 5710 5710 5715 5718 5720 5723 5726 5729
5692 5696 5700 5705 5710 5714 5717 5720 5721 5723 5724 5726 5728 5729 5729 5729 5728 5728 5726 5725 5724 5723 5722 5721 5721 5719 5717 5715 5714 5712 5711 5710 5708 5709 5710 5711 5713 5716 5718 5720 5723 5726 5729
5679 5686 5692 5697 5701 5706 5710 5712 5714 5716 5718 5720 5721 5722 5722 5722 5723 5722 5720 5719 5718 5718 5717 5717 5716 5714 5712 5710 5710 5709 5709 5708 5709 5710 5710 5712 5714 5715 5718 5721 5724 5726 5729
5670 5676 5683 5689 5693 5698 5702 5705 5708 5710 5712 5713 5714 5715 5716 5716 5715 5715 5714 5712 5712 5712 5710 5710 5709 5708 5706 5705 5706 5706 5707 5709 5710 5709 5710 5713 5714 5715 5717 5722 5724 5726 5729
5661 5669 5675 5680 5686 5691 5695 5699 5702 5703 5704 5706 5708 5709 5710 5710 5709 5708 5707 5706 5706 5705 5704 5704 5703 5702 5701 5702 5703 5704 5706 5707 5709 5709 5709 5710 5714 5716 5718 5720 5723 5726 5727
5652 5660 5667 5673 5680 5684 5690 5693 5695 5697 5699 5700 5702 5703 5704 5704 5703 5702 5702 5701 5700 5699 5699 5698 5697 5698 5698 5698 5700 5702 5704 5706 5708 5709 5709 5711 5712 5715 5718 5720 5722 5725 5728
5643 5653 5662 5668 5673 5678 5682 5686 5689 5692 5692 5695 5697 5698 5698 5698 5698 5697 5697 5696 5695 5694 5693 5692 5692 5693 5694 5695 5698 5700 5703 5705 5707 5709 5711 5712 5714 5715 5718 5720 5722 5724 5727
5636 5646 5655 5660 5667 5672 5677 5681 5684 5686 5688 5690 5691 5693 5693 5693 5693 5692 5691 5691 5690 5689 5687 5686 5686 5687 5689 5692 5696 5698 5701 5704 5705 5707 5710 5713 5715 5717 5719 5721 5723 5725 5728
5629 5639 5649 5656 5663 5667 5672 5675 5678 5681 5683 5685 5687 5688 5689 5689 5688 5687 5686 5686 5685 5685 5684 5684 5684 5683 5684 5689 5693 5696 5700 5702 5704 5706 5709 5712 5714 5716 5719 5721 5722 5725 5727
5625 5637 5646 5652 5657 5662 5666 5670 5674 5676 5678 5680 5682 5684 5684 5684 5684 5683 5682 5681 5681 5682 5682 5683 5684 5684 5686 5688 5691 5694 5698 5701 5703 5706 5708 5710 5713 5716 5719 5721 5722 5724 5727
5624 5635 5641 5647 5654 5658 5662 5667 5670 5671 5673 5676 5678 5679 5680 5680 5680 5678 5678 5677 5678 5679 5681 5681 5683 5684 5686 5689 5691 5694 5697 5699 5702 5705 5708 5710 5713 5716 5719 5720 5722 5724 5727
5624 5630 5638 5645 5650 5655 5659 5663 5666 5668 5670 5672 5673 5675 5676 5676 5675 5675 5674 5675 5675 5676 5678 5679 5680 5683 5685 5688 5690 5693 5695 5697 5700 5703 5706 5709 5712 5715 5718 5720 5722 5724 5726
5622 5629 5637 5643 5648 5653 5656 5659 5662 5664 5666 5668 5670 5671 5672 5672 5671 5671 5671 5672 5673 5673 5675 5677 5679 5681 5684 5687 5689 5692 5694 5696 5699 5703 5706 5708 5711 5714 5716 5719 5721 5723 5725
5621 5629 5636 5641 5646 5651 5653 5656 5658 5662 5663 5665 5667 5668 5669 5670 5670 5669 5670 5670 5671 5672 5674 5677 5679 5681 5684 5686 5688 5691 5694 5696 5699 5702 5704 5706 5709 5711 5714 5716 5718 5721 5722
5624 5629 5635 5641 5645 5648 5650 5653 5657 5659 5661 5664 5666 5667 5669 5669 5669 5669 5669 5669 5671 5672 5675 5677 5680 5682 5684 5686 5688 5691 5693 5696 5698 5700 5703 5705 5708 5710 5712 5714 5716 5717 5719
5624 5630 5636 5639 5643 5645 5648 5652 5654 5657 5661 5663 5665 5667 5668 5670 5670 5669 5669 5670 5672 5674 5676 5678 5681 5683 5685 5687 5689 5691 5693 5695 5697 5699 5702 5704 5706 5709 5709 5710 5713 5715 5717
5626 5630 5634 5637 5639 5644 5647 5650 5654 5657 5661 5663 5665 5668 5669 5671 5671 5670 5670 5671 5672 5675 5677 5679 5681 5683 5685 5687 5690 5692 5694 5696 5698 5700 5702 5704 5707 5709 5710 5711 5712 5714 5716
5628 5630 5632 5636 5640 5643 5647 5651 5654 5657 5661 5664 5665 5667 5670 5672 5672 5672 5673 5674 5675 5677 5679 5681 5682 5684 5686 5688 5691 5693 5695 5698 5699 5701 5703 5705 5706 5707 5708 5710 5711 5712 5714
5627 5631 5635 5638 5641 5644 5647 5652 5655 5658 5661 5664 5666 5668 5670 5672 5674 5676 5677 5678 5678 5680 5682 5684 5685 5687 5688 5689 5690 5692 5694 5697 5699 5701 5702 5703 5704 5706 5707 5708 5710 5712 5714
5630 5634 5637 5640 5643 5647 5649 5653 5656 5659 5662 5664 5667 5670 5673 5675 5676 5677 5679 5680 5681 5682 5684 5686 5687 5689 5690 5691 5692 5694 5696 5697 5699 5700 5701 5703 5704 5705 5706 5708 5709 5711 5713
5632 5634 5639 5643 5646 5649 5652 5656 5659 5661 5663 5665 5668 5670 5673 5675 5677 5679 5681 5681 5683 5685 5686 5688 5689 5690 5691 5693 5694 5696 5697 5699 5700 5702 5703 5704 5705 5707 5709 5710 5711 5712 5713
5634 5637 5641 5644 5648 5651 5654 5657 5660 5662 5664 5666 5669 5672 5674 5676 5678 5680 5681 5683 5685 5685 5686 5688 5689 5691 5692 5694 5695 5696 5697 5698 5699 5701 5702 5703 5705 5706 5707 5707 5708 5709 5709
5635 5639 5642 5646 5649 5653 5656 5659 5660 5662 5664 5667 5670 5672 5675 5677 5680 5681 5682 5684 5686 5686 5687 5689 5690 5692 5693 5694 5696 5697 5698 5699 5700 5701 5702 5703 5704 5704 5704 5704 5705 5705 5704
5638 5640 5644 5648 5651 5654 5656 5658 5660 5663 5665 5669 5672 5674 5677 5678 5680 5682 5684 5685 5687 5689 5689 5691 5692 5693 5695 5696 5696 5697 5698 5698 5699 5699 5700 5701 5701 5701 5700 5700 5699 5699 5699
5639 5642 5646 5650 5653 5655 5657 5660 5662 5665 5668 5671 5673 5675 5677 5679 5682 5683 5685 5686 5687 5689 5690 5691 5692 5693 5694 5695 5696 5696 5697 5697 5697 5698 5697 5697 5696 5696 5695 5694 5694 5693 5691
5640 5644 5647 5651 5654 5656 5658 5662 5664 5667 5670 5672 5674 5676 5679 5680 5683 5684 5686 5687 5689 5690 5691 5692 5693 5694 5695 5695 5695 5696 5696 5695 5695 5694 5693 5693 5692 5691 5689 5687 5685 5684 5682
Wind_Speed
51 51 50 48 45 42 37 34 32 32 30 31 32 29 29 29 30 30 27 27 27 27 26 24 24 24 23 22 20 15 12 14 9 6 7 6 14 16 18 15 16 20 19
52 53 51 45 42 39 35 31 30 29 30 32 28 28 30 29 30 27 25 27 27 26 25 25 24 24 21 19 14 10 9 8 4 8 8 7 14 18 19 17 16 18 19
50 48 47 43 41 37 33 29 29 29 29 28 28 29 29 30 27 26 28 28 25 25 26 24 23 23 21 20 13 10 5 2 7 4 9 13 11 14 21 18 15 16 18
48 45 45 38 38 35 32 27 27 28 28 27 28 29 28 26 27 29 28 27 28 28 26 23 23 21 20 14 12 10 6 9 5 3 9 12 10 8 21 18 16 16 19
47 42 43 39 36 31 27 28 29 27 26 27 28 26 25 26 26 26 26 27 26 23 21 21 19 18 15 12 12 12 9 9 12 8 4 9 17 14 17 19 16 19 22
46 42 41 38 32 28 27 28 27 25 25 26 24 24 23 21 22 23 22 21 19 18 19 19 19 16 13 14 14 14 11 11 10 4 5 10 17 15 17 17 17 19 20
43 43 38 31 30 28 27 27 25 25 25 24 23 21 19 20 21 20 17 17 18 18 20 21 20 15 16 16 15 15 15 13 14 13 11 12 15 17 17 16 16 21 24
42 41 34 32 31 28 24 24 24 24 23 23 22 19 20 18 18 16 16 17 16 17 15 15 14 16 16 19 19 18 16 14 12 13 14 15 13 14 16 17 15 18 20
43 37 35 31 26 24 25 24 24 24 22 21 20 20 18 17 16 16 15 15 15 12 9 9 9 10 17 18 19 18 16 15 15 14 16 16 15 14 14 15 15 12 16
40 35 30 27 26 26 24 24 24 22 20 20 19 18 17 16 15 14 14 13 11 8 8 9 10 8 9 10 13 17 16 15 16 17 19 19 18 15 14 15 16 16 16
36 33 30 27 25 25 24 23 23 20 18 20 19 17 16 14 13 13 12 13 9 10 8 10 12 9 12 12 14 17 14 14 17 16 18 21 18 15 16 18 17 17 17
36 32 28 26 26 25 24 22 19 18 19 18 15 14 12 11 11 10 12 11 10 9 9 10 12 11 14 14 13 16 14 14 18 16 15 16 17 16 16 16 15 13 15
32 28 27 25 24 23 22 19 19 18 16 15 13 10 9 9 7 6 10 11 10 10 10 11 11 12 14 13 14 16 15 14 15 16 15 16 16 17 16 14 13 14 16
29 28 25 24 23 22 19 18 17 15 15 13 12 9 8 8 3 3 6 9 9 8 11 14 13 12 12 13 13 14 15 16 16 15 16 16 17 17 17 18 16 17 19
27 24 23 22 22 20 18 15 15 13 14 12 10 8 10 6 3 3 6 7 7 9 12 16 15 14 14 13 13 14 14 15 15 15 16 16 15 14 16 19 20 21 22
24 23 22 20 18 16 16 15 15 17 14 12 10 16 9 6 5 6 6 6 7 11 13 14 15 15 14 13 12 12 13 13 14 15 14 13 12 9 7 22 22 19 17
22 20 20 16 15 18 16 16 19 16 14 12 13 14 8 6 7 10 10 10 9 11 12 14 14 14 13 13 15 15 13 12 13 11 10 9 12 11 6 5 13 17 18
17 16 14 14 15 15 16 19 18 14 13 12 11 11 10 6 8 13 12 10 12 14 13 13 13 13 12 11 11 12 10 10 11 11 10 12 14 13 11 10 11 17 16
14 15 16 15 14 15 21 19 19 17 15 11 9 11 13 10 8 12 13 12 11 11 10 9 8 7 8 10 10 11 12 12 10 8 10 11 12 11 10 10 11 14 16
16 20 17 18 18 18 18 21 19 15 12 10 8 11 10 9 10 9 10 9 11 11 11 11 11 9 7 6 5 5 7 8 6 6 8 10 9 9 10 12 16 17 17
17 15 14 13 15 17 17 18 13 12 13 13 11 8 14 13 11 11 10 9 10 12 12 10 10 9 10 10 10 8 6 5 4 3 2 4 5 6 7 9 14 16 16
16 14 14 14 15 17 18 17 13 12 16 16 16 16 15 15 13 13 12 11 11 12 12 13 13 11 11 10 10 9 8 7 7 6 6 6 6 8 10 14 16 18 20
16 17 15 14 15 16 15 14 15 16 15 15 17 18 17 15 13 12 12 12 11 10 10 11 10 10 9 8 8 8 8 7 7 8 9 10 12 14 16 17 19 20 23
15 16 17 17 15 16 16 17 19 19 18 16 15 14 14 15 14 12 11 9 8 7 7 7 5 4 4 5 6 6 7 8 9 9 11 13 14 15 17 17 19 19 21
15 16 15 15 16 14 14 15 18 18 17 16 14 13 13 11 10 9 8 8 7 6 6 6 5 4 3 2 3 5 6 8 9 11 14 14 17 19 20 21 23 25 26
17 14 15 17 16 16 15 14 15 15 16 15 14 12 10 10 10 10 9 7 7 5 3 3 4 5 7 9 10 11 14 16 17 18 20 22 24 25 28 30 31 32 34
Wind_Direction
237 241 242 241 241 242 247 254 256 258 260 258 262 265 267 267 272 270 273 276 275 275 276 283 284 284 285 291 297 284 279 290 268 243 228 219 219 198 199 186 177 178 182
228 235 239 240 242 243 248 252 255 253 252 257 261 263 266 272 267 267 270 271 274 277 282 285 280 281 280 291 294 275 281 289 254 206 214 174 162 189 192 181 184 178 179
222 228 233 237 239 242 248 253 251 248 252 254 257 261 268 264 262 265 266 270 277 277 275 280 276 275 281 293 265 254 264 181 154 157 181 203 208 209 201 198 190 184 181
224 228 231 233 234 238 244 247 241 244 247 250 257 264 258 257 262 266 271 276 274 273 274 278 274 274 285 275 246 227 218 198 199 166 174 192 186 191 189 192 195 190 188
221 224 227 228 231 234 236 232 237 242 246 254 258 250 253 262 268 272 273 272 272 270 267 268 269 277 280 235 225 212 215 208 234 251 212 188 190 186 184 188 191 191 185
217 216 220 222 225 221 226 233 239 243 249 249 240 246 261 266 268 271 269 268 267 264 265 267 271 269 242 230 216 207 207 196 197 196 187 199 204 199 192 195 196 193 190
213 211 214 212 214 218 224 233 237 242 238 234 241 253 256 261 268 269 262 257 267 266 269 270 264 256 230 220 213 205 210 201 195 208 204 194 186 190 193 197 199 197 195
205 204 204 206 211 218 225 230 237 230 227 237 247 246 252 263 271 266 262 266 264 275 274 265 244 245 230 220 208 200 206 203 203 204 204 191 189 198 198 199 202 201 198
191 193 196 205 209 215 220 230 224 224 231 240 236 241 250 264 263 261 262 264 267 263 271 241 248 237 195 190 202 197 202 201 198 199 196 194 194 198 202 203 201 200 199
180 187 194 198 204 215 222 218 219 227 231 231 236 239 251 258 253 256 260 258 260 252 241 229 203 190 172 182 204 198 200 205 198 202 202 202 205 205 208 206 199 194 200
174 183 192 197 207 212 212 214 221 225 225 233 237 243 245 247 251 255 251 255 248 227 228 218 214 190 188 183 192 192 195 206 203 197 201 205 208 207 206 199 196 195 201
177 184 191 199 200 204 207 213 215 218 230 236 234 229 234 244 250 248 251 238 231 237 230 219 217 200 190 182 185 192 194 192 194 197 195 200 205 209 210 213 212 212 211
176 183 188 188 194 199 208 206 214 224 226 211 212 212 224 231 258 250 228 219 230 229 200 192 202 189 185 181 188 186 188 191 197 194 197 203 208 211 216 213 215 214 219
169 174 178 186 193 197 198 209 218 206 198 198 194 202 203 204 238 199 196 180 188 195 178 174 178 174 177 185 185 180 180 185 191 197 200 204 208 211 210 206 201 209 212
165 172 178 185 191 196 203 201 193 189 181 177 181 177 164 158 161 169 174 165 165 168 165 162 159 163 168 172 169 174 182 189 192 195 201 205 211 215 217 213 215 217 220
164 172 181 188 190 183 181 180 171 167 167 164 164 155 134 133 112 111 130 152 148 155 153 155 156 155 153 154 163 171 178 186 193 199 202 206 208 194 219 219 218 217 223
164 172 176 171 166 171 175 173 164 164 163 157 159 168 137 132 128 105 108 129 134 152 159 160 157 154 156 158 161 162 166 172 174 179 186 200 206 225 242 221 218 220 235
164 163 152 156 169 176 170 163 156 156 172 169 163 176 174 155 134 103 91 112 132 139 144 157 160 157 161 166 173 180 186 183 188 203 210 210 210 216 229 255 247 226 218
156 148 151 154 155 153 155 159 154 155 162 170 173 161 165 157 129 112 108 95 104 123 135 140 149 164 175 182 184 189 194 192 194 207 213 209 217 232 223 208 205 201 204
152 153 148 153 156 151 151 155 152 157 161 164 164 164 150 124 116 119 120 114 102 110 124 131 128 124 119 123 134 174 195 196 212 229 225 210 199 193 194 196 196 203 216
145 138 143 144 156 154 150 148 135 145 153 149 139 137 134 128 131 137 136 137 140 122 120 126 133 139 138 134 132 133 143 160 169 161 194 215 217 222 231 228 227 232 241
138 137 146 148 156 155 150 157 159 142 144 145 140 129 126 134 141 142 139 139 142 140 137 137 136 142 142 144 147 149 155 164 170 171 182 200 221 235 243 243 245 249 251
141 141 144 146 149 162 164 167 162 151 146 151 152 152 153 153 158 156 152 155 159 160 157 151 154 157 163 162 167 179 184 192 203 217 230 245 254 256 258 261 263 264 266
154 144 146 150 157 159 161 164 164 157 152 155 159 161 162 160 160 169 165 163 166 175 175 167 171 191 221 234 229 239 232 237 242 249 253 260 263 269 270 270 272 270 275
172 160 154 153 153 158 168 173 170 167 167 165 168 170 165 167 172 171 162 166 179 182 171 173 167 169 179 212 255 256 261 260 263 267 267 266 264 269 270 270 271 273 274
178 181 169 163 157 169 174 176 175 171 169 167 171 176 178 180 182 182 175 177 180 180 200 245 262 266 265 272 274 277 281 283 283 282 281 282 283 280 278 277 277 278 279